Regional Weather Roundup
Issued by NWS Albany, NY

Home | Current Version | Previous Version | Text Only | Print | Product List | Glossary On
Versions: 1 2 3 4 5 6 7 8 9 10 11 12 13 14 15 16 17 18 19 20 21 22 23 24 25 26 27 28
000
ASUS41 KALY 270610
RWRALY

NEW YORK STATE HOURLY WEATHER ROUNDUP
NATIONAL WEATHER SERVICE ALBANY NY
200 AM EDT SAT AUG 27 2016

NOTE: "FAIR" INDICATES FEW OR NO CLOUDS BELOW 12,000 FEET WITH NO
SIGNIFICANT WEATHER AND/OR NO OBSTRUCTIONS TO VISIBILITY.

NYZ032-033-038>043-046>054-057>066-NYZ062>081-082-084-270700-
EAST


CITY           SKY/WX    TMP DP  RH WIND       PRES   REMARKS
ALBANY         FAIR      67  60  78 NW7       30.13R
GLENS FALLS    FAIR      61  58  90 CALM      30.12R
POUGHKEEPSIE   FAIR      62  60  93 CALM      30.10S
MONTGOMERY     FAIR      65  63  93 CALM      30.12R
WHITE PLAINS   FAIR      69  60  73 N7        30.11R
ISLIP          CLEAR     73  64  73 N10       30.07S
NEW YORK CITY  PTCLDY    80  64  58 N9        30.08S
CENTRAL PARK     N/A     73  63  68 MISG        N/A
$$

NYZ005>009-017-018-044>046-055-056-270700-
CENTRAL


CITY           SKY/WX    TMP DP  RH WIND       PRES   REMARKS
FULTON         FAIR      63  62  97 CALM      30.15R
SYRACUSE       FAIR      66  62  87 CALM      30.15R
ROME           FAIR      62  61  96 E3        30.17R
ELMIRA         FAIR      63  61  93 W3        30.18S
BINGHAMTON     FAIR      66  63  90 NW3       30.19S
MONTICELLO     FAIR      63  61  94 CALM      30.19R
$$

NYZ026>034-041>043-087-270700-
NORTH


CITY           SKY/WX    TMP DP  RH WIND       PRES   REMARKS
WATERTOWN      FAIR      67  62  84 S5        30.13R
FORT DRUM      NOT AVBL
MASSENA        FAIR      63  60  90 CALM      30.12R FOG
PLATTSBURGH    MOCLDY    70  60  70 SW5       30.10R
$$

NYZ001>004-010>016-019>021-085-270700-
WEST


CITY           SKY/WX    TMP DP  RH WIND       PRES   REMARKS
NIAGARA FALLS  FAIR      67  60  78 CALM      30.18R
BUFFALO        FAIR      69  63  81 CALM      30.18S
DUNKIRK        FAIR      65  63  93 CALM      30.18F
JAMESTOWN      FAIR      63  55  77 NE3       30.21F
WELLSVILLE     FAIR      61  59  93 CALM      30.25S
ROCHESTER      FAIR      67  65  93 W5        30.18R
PENN YAN       FAIR      69  66  90 S6        30.18S
$$

             KEY
       WCI = WIND CHILL INDEX
       VSB = VISIBILITY
       HX  = HEAT INDEX
$$




USA.gov is the U.S. government's official web portal to all federal, state and local government web resources and services.